Location: Home
(42.5358°N, 72.7383°W)
Time: 04:24:19
(UTC-04:00)

IRIDIUM 152 - Pass Details

Date: 10 July 2022
Orbit: 776 x 779 km, 86.4° (Epoch: 16 August)

Event Time Altitude Azimuth Distance (km) Brightness Sun altitude
Exits shadow 03:36:48 14° 176° (S) 2,038 ? -15.4°
Maximum altitude 03:41:16 79° 90° (E) 800 ? -14.9°
Drops below altitude 10° 03:46:30 10° 5° (N) 2,341 ? -14.3°
Sets 03:48:51 0° 5° (N) 3,273 ? -14.0°
